• In Belarus
  • List of Countries
  • For 7 days
  • Water Temperature
  • Satellite Maps
  • Weather Map
  • Weather Widgets
  • user-avatar
    Login

    Hourly Weather Porokhova

    Today, 17 June, Monday

    Time Temperature Precipitation Wind Pressure Humidity
    00:00 +22°C° 0 mm 1 mps 731 mmHg 99%
    01:00 +21°C° 0 mm 1 mps 731 mmHg 99%
    02:00 +21°C° 0 mm 1 mps 731 mmHg 97%
    03:00 +19°C° 0 mm 2 mps 732 mmHg 99%
    04:00 +19°C° 0 mm 2 mps 732 mmHg 100%
    05:00 +20°C° 0 mm 1 mps 732 mmHg 100%
    06:00 +20°C° 0 mm 1 mps 732 mmHg 100%
    07:00 +21°C° 0 mm 1 mps 733 mmHg 100%
    08:00 +20°C° 0 mm 2 mps 733 mmHg 100%
    09:00 +20°C° 0 mm 2 mps 733 mmHg 100%
    10:00 +21°C° 0 mm 3 mps 734 mmHg 100%
    11:00 +24°C° 0 mm 3 mps 734 mmHg 97%
    12:00 +25°C° 0 mm 3 mps 734 mmHg 97%
    13:00 +25°C° 0 mm 4 mps 733 mmHg 94%
    14:00 +25°C° 0 mm 4 mps 733 mmHg 92%
    15:00 +25°C° 0 mm 4 mps 733 mmHg 89%
    16:00 +25°C° 0 mm 4 mps 733 mmHg 88%
    17:00 +25°C° 0 mm 4 mps 733 mmHg 88%
    18:00 +25°C° 0 mm 4 mps 733 mmHg 89%
    19:00 +24°C° 0 mm 3 mps 733 mmHg 90%
    20:00 +24°C° 0 mm 2 mps 733 mmHg 95%
    21:00 +23°C° 0 mm 2 mps 733 mmHg 97%
    22:00 +21°C° 0 mm 3 mps 733 mmHg 99%
    23:00 +20°C° 0 mm 3 mps 733 mmHg 99%

    Tomorrow, 18 June, Tuesday

    Time Temperature Precipitation Wind Pressure Humidity
    00:00 +20°C° 0 mm 2 mps 734 mmHg 100%
    01:00 +19°C° 0 mm 3 mps 734 mmHg 100%
    02:00 +19°C° 0 mm 3 mps 734 mmHg 100%
    03:00 +19°C° 0 mm 3 mps 734 mmHg 100%
    04:00 +18°C° 0 mm 3 mps 734 mmHg 100%
    05:00 +18°C° 0 mm 3 mps 734 mmHg 100%
    06:00 +18°C° 0 mm 3 mps 734 mmHg 100%
    07:00 +18°C° 0 mm 2 mps 734 mmHg 100%
    08:00 +18°C° 0 mm 2 mps 735 mmHg 100%
    09:00 +20°C° 0 mm 1 mps 735 mmHg 98%
    10:00 +21°C° 0 mm 1 mps 735 mmHg 97%
    11:00 +22°C° 0 mm 1 mps 735 mmHg 95%
    12:00 +23°C° 0 mm 2 mps 735 mmHg 91%
    13:00 +24°C° 0 mm 3 mps 734 mmHg 89%
    14:00 +24°C° 0 mm 3 mps 734 mmHg 87%
    15:00 +24°C° 0 mm 3 mps 734 mmHg 84%
    16:00 +24°C° 0 mm 3 mps 734 mmHg 87%
    17:00 +24°C° 0 mm 3 mps 733 mmHg 85%
    18:00 +24°C° 0 mm 2 mps 733 mmHg 85%
    19:00 +24°C° 0 mm 2 mps 733 mmHg 89%
    20:00 +23°C° 0 mm 1 mps 733 mmHg 95%
    21:00 +22°C° 0 mm 1 mps 733 mmHg 96%
    22:00 +21°C° 0 mm 2 mps 733 mmHg 98%
    23:00 +20°C° 0 mm 2 mps 733 mmHg 100%

    Day after tomorrow, 19 June, Wednesday

    Time Temperature Precipitation Wind Pressure Humidity
    00:00 +19°C° 0 mm 2 mps 734 mmHg 100%
    01:00 +19°C° 0 mm 2 mps 733 mmHg 100%
    02:00 +19°C° 0 mm 3 mps 733 mmHg 100%
    03:00 +19°C° 0 mm 3 mps 733 mmHg 100%
    04:00 +19°C° 0 mm 3 mps 733 mmHg 100%
    05:00 +19°C° 0 mm 3 mps 733 mmHg 100%
    06:00 +19°C° 0 mm 3 mps 733 mmHg 100%
    07:00 +19°C° 0 mm 3 mps 733 mmHg 100%
    08:00 +20°C° 0 mm 3 mps 733 mmHg 100%
    09:00 +20°C° 0 mm 3 mps 733 mmHg 98%
    10:00 +21°C° 0 mm 4 mps 733 mmHg 98%
    11:00 +22°C° 0 mm 4 mps 733 mmHg 97%
    12:00 +23°C° 0 mm 4 mps 733 mmHg 93%
    13:00 +25°C° 0 mm 5 mps 732 mmHg 90%
    14:00 +25°C° 0 mm 5 mps 732 mmHg 91%
    15:00 +25°C° 0 mm 5 mps 732 mmHg 90%
    16:00 +26°C° 0 mm 5 mps 731 mmHg 88%
    17:00 +25°C° 0 mm 5 mps 731 mmHg 89%
    18:00 +25°C° 0 mm 5 mps 731 mmHg 91%
    19:00 +25°C° 0 mm 4 mps 731 mmHg 93%
    20:00 +23°C° 0 mm 4 mps 731 mmHg 95%
    21:00 +22°C° 0 mm 5 mps 731 mmHg 97%
    22:00 +21°C° 0 mm 5 mps 731 mmHg 99%
    23:00 +21°C° 0 mm 5 mps 731 mmHg 100%

    20 June, Thursday

    Time Temperature Precipitation Wind Pressure Humidity
    00:00 +21°C° 0 mm 4 mps 731 mmHg 100%
    01:00 +20°C° 0 mm 4 mps 731 mmHg 100%
    02:00 +20°C° 0 mm 5 mps 731 mmHg 100%
    03:00 +20°C° 0 mm 5 mps 730 mmHg 100%
    04:00 +20°C° 0 mm 4 mps 730 mmHg 100%
    05:00 +20°C° 0 mm 4 mps 731 mmHg 100%
    06:00 +20°C° 0 mm 4 mps 731 mmHg 100%
    07:00 +20°C° 0 mm 3 mps 731 mmHg 100%
    08:00 +21°C° 0 mm 3 mps 731 mmHg 100%
    09:00 +23°C° 0 mm 2 mps 732 mmHg 97%
    10:00 +24°C° 0 mm 2 mps 732 mmHg 97%
    11:00 +25°C° 0 mm 2 mps 732 mmHg 95%
    12:00 +26°C° 0 mm 3 mps 732 mmHg 93%
    13:00 +26°C° 0 mm 4 mps 731 mmHg 93%
    14:00 +27°C° 0 mm 4 mps 731 mmHg 90%

    21 June, Friday

    Time Temperature Precipitation Wind Pressure Humidity

    22 June, Saturday

    Time Temperature Precipitation Wind Pressure Humidity
    Show more